Location: Paris
(48.6709°N, 2.3750°E)
Time: 13:09:27
(UTC+02:00)

YUBILEINY - Pass Details

Date: 29 June 2022
Orbit: 1478 x 1509 km, 82.5° (Epoch: 08 August)

Event Time Altitude Azimuth Distance (km) Brightness Sun altitude
Rises 03:38:52 0° 351° (N) 4,659 ? -14.4°
Reaches altitude 10° 03:43:48 10° 15° (NNE) 3,669 ? -14.0°
Maximum altitude 03:48:17 15° 46° (NE) 3,307 ? -13.7°
Drops below altitude 10° 03:52:44 10° 77° (ENE) 3,650 ? -13.3°
Sets 03:57:34 0° 101° (E) 4,619 ? -13.0°
